Satellite: OKEAN-0
Catalog number: 25860
Epoch time:      08353.07171130
Element set:     552
Inclination:      097.7670 deg
RA of node:       335.6601 deg
Eccentricity:    0.0001762
Arg of perigee:   060.6452 deg
Mean anomaly:     299.4930 deg
Mean motion:   14.73549342 rev/day
Decay rate:       -1.0e-08 rev/day^2
Epoch rev:           50647
Checksum:              285

Satellite: FENGYUN1
Catalog number: 25730
Epoch time:      08352.92327621
Element set:     640
Inclination:      098.7418 deg
RA of node:       322.6614 deg
Eccentricity:    0.0022928
Arg of perigee:   007.6599 deg
Mean anomaly:     352.4917 deg
Mean motion:   14.07903619 rev/day
Decay rate:       4.43e-06 rev/day^2
Epoch rev:           49481
Checksum:              315

Satellite: RESURS
Catalog number: 25394
Epoch time:      08353.74288029
Element set:      97
Inclination:      098.3623 deg
RA of node:       029.0632 deg
Eccentricity:    0.0002303
Arg of perigee:   035.9694 deg
Mean anomaly:     324.1640 deg
Mean motion:   14.24176886 rev/day
Decay rate:       -1.6e-07 rev/day^2
Epoch rev:           54271
Checksum:              299

Satellite: NOAA-15
Catalog number: 25338
Epoch time:      08353.42751139
Element set:     740
Inclination:      098.5708 deg
RA of node:       340.7494 deg
Eccentricity:    0.0009982
Arg of perigee:   221.4663 deg
Mean anomaly:     138.5798 deg
Mean motion:   14.24737966 rev/day
Decay rate:       1.41e-06 rev/day^2
Epoch rev:           55103
Checksum:              329

Satellite: NOAA-14
Catalog number: 23455
Epoch time:      08353.41697314
Element set:     438
Inclination:      098.9290 deg
RA of node:       065.5926 deg
Eccentricity:    0.0009100
Arg of perigee:   347.9339 deg
Mean anomaly:     012.1670 deg
Mean motion:   14.13753567 rev/day
Decay rate:        1.7e-07 rev/day^2
Epoch rev:           72038
Checksum:              309

Satellite: OKEAN-4
Catalog number: 23317
Epoch time:      08353.50441451
Element set:     776
Inclination:      082.5383 deg
RA of node:       143.0944 deg
Eccentricity:    0.0020642
Arg of perigee:   238.5274 deg
Mean anomaly:     121.3918 deg
Mean motion:   14.82659447 rev/day
Decay rate:        6.6e-07 rev/day^2
Epoch rev:           76559
Checksum:              312

Satellite: MET-2/21
Catalog number: 22782
Epoch time:      08352.52616060
Element set:     328
Inclination:      082.5478 deg
RA of node:       326.1218 deg
Eccentricity:    0.0023557
Arg of perigee:   133.2916 deg
Mean anomaly:     227.0209 deg
Mean motion:   13.83631298 rev/day
Decay rate:       -4.7e-07 rev/day^2
Epoch rev:           77248
Checksum:              304

Satellite: MET-3/5
Catalog number: 21655
Epoch time:      08353.79845919
Element set:     530
Inclination:      082.5548 deg
RA of node:       333.9466 deg
Eccentricity:    0.0012388
Arg of perigee:   274.3729 deg
Mean anomaly:     085.5977 deg
Mean motion:   13.17017617 rev/day
Decay rate:        5.1e-07 rev/day^2
Epoch rev:           83388
Checksum:              350

Satellite: NOAA-12
Catalog number: 21263
Epoch time:      08353.65651071
Element set:     947
Inclination:      098.7716 deg
RA of node:       355.6446 deg
Eccentricity:    0.0011791
Arg of perigee:   313.3111 deg
Mean anomaly:     046.7566 deg
Mean motion:   14.25558973 rev/day
Decay rate:        4.8e-07 rev/day^2
Epoch rev:           91471
Checksum:              318

Satellite: NOAA-11
Catalog number: 19531
Epoch time:      08353.31481032
Element set:     441
Inclination:      098.7926 deg
RA of node:       080.0274 deg
Eccentricity:    0.0010817
Arg of perigee:   264.9938 deg
Mean anomaly:     095.0048 deg
Mean motion:   14.14883982 rev/day
Decay rate:        7.1e-07 rev/day^2
Epoch rev:            4394
Checksum:              304

Satellite: NOAA-10
Catalog number: 16969
Epoch time:      08353.51436011
Element set:     417
Inclination:      098.7083 deg
RA of node:       014.9906 deg
Eccentricity:    0.0012406
Arg of perigee:   007.9589 deg
Mean anomaly:     352.1793 deg
Mean motion:   14.27375870 rev/day
Decay rate:        1.4e-07 rev/day^2
Epoch rev:           15773
Checksum:              312

/EX
SB KEPS @ AMSAT  $ORB08353.M
Orbital Elements  08353.MISC

HR AMSAT ORBITAL ELEMENTS FOR MANNED AND MISCELLANEOUS SATELLITES
FROM WA5QGD FORT WORTH,TX December 18, 2008
Send Subscribe/unsubscribe to KEPS at 
http://www.amsat.org/mailman/listinfo/keps
BID: ORB08353.M
TO ALL RADIO AMATEURS BT

Satellite: RS-30
Catalog number: 32953
Epoch time:      08353.57078489
Element set:     186
Inclination:      082.5025 deg
RA of node:       008.9285 deg
Eccentricity:    0.0018337
Arg of perigee:   209.4194 deg
Mean anomaly:     150.5859 deg
Mean motion:   12.42998866 rev/day
Decay rate:        1.0e-07 rev/day^2
Epoch rev:            2595
Checksum:              333

Satellite: CO-66
Catalog number: 32791
Epoch time:      08353.19227407
Element set:     222
Inclination:      097.9711 deg
RA of node:       052.3561 deg
Eccentricity:    0.0015100
Arg of perigee:   257.6967 deg
Mean anomaly:     102.2554 deg
Mean motion:   14.81360365 rev/day
Decay rate:        8.5e-07 rev/day^2
Epoch rev:            3461
Checksum:              290

